,,,PA_Meas_PMT16A,,PR_Meas_QMR101_102,,RH_Meas_QMH101,,SR_Meas_QMS101,,TA_Meas_QMH101,,GenWind,,GenWind,
date,time,status,PA,status,PR,status,RH,status,SR,status,TA,status,DirAvg,status,SpdAvg,
2011-01-03, 00:00:04,VALID,1002.41,VALID,0,INVALID,163.693,VALID,0,VALID,24.3265,VALID,3,VALID,0.714063,
2011-01-03, 00:01:04,VALID,1002.41,VALID,0,INVALID,163.701,VALID,0,VALID,24.3052,VALID,3,VALID,0.710156,
2011-01-03, 00:02:04,VALID,1002.43,VALID,0,INVALID,163.685,VALID,0,VALID,24.3265,VALID,3,VALID,0.576172,
2011-01-03, 00:03:04,VALID,1002.42,VALID,0,INVALID,163.701,VALID,0,VALID,24.3265,VALID,3,VALID,0.539453,
2011-01-03, 00:04:04,VALID,1002.46,VALID,0,INVALID,163.693,VALID,0,VALID,24.307,VALID,3,VALID,0.476953,
2011-01-03, 00:05:04,VALID,1002.45,VALID,0,INVALID,163.685,VALID,0,VALID,24.307,VALID,3,VALID,0.434766,
2011-01-03, 00:06:04,VALID,1002.45,VALID,0,INVALID,163.685,VALID,0,VALID,24.307,VALID,3,VALID,0.452734,
2011-01-03, 00:07:04,VALID,1002.47,VALID,0,INVALID,163.67,VALID,0,VALID,24.3265,VALID,3,VALID,0.414453,
2011-01-03, 00:08:04,VALID,1002.47,VALID,0,INVALID,163.67,VALID,0,VALID,24.3265,VALID,3,VALID,0.419922,
2011-01-03, 00:09:04,VALID,1002.49,VALID,0,INVALID,163.685,VALID,0,VALID,24.3052,VALID,3,VALID,0.533984,
2011-01-03, 00:10:04,VALID,1002.5,VALID,0,INVALID,163.678,VALID,0,VALID,24.3265,VALID,3,VALID,0.712109,
2011-01-03, 00:11:04,VALID,1002.52,VALID,0,INVALID,163.67,VALID,0,VALID,24.3265,VALID,3,VALID,0.617188,
2011-01-03, 00:12:04,VALID,1002.54,VALID,0,INVALID,163.685,VALID,0,VALID,24.3459,VALID,3,VALID,0.617969,
2011-01-03, 00:13:04,VALID,1002.53,VALID,0,INVALID,163.685,VALID,0,VALID,24.3246,VALID,2,VALID,0.613672,
2011-01-03, 00:14:04,VALID,1002.53,VALID,0,INVALID,163.67,VALID,0,VALID,24.3246,VALID,2,VALID,0.511719,
2011-01-03, 00:15:04,VALID,1002.51,VALID,0,INVALID,163.678,VALID,0,VALID,24.3459,VALID,2,VALID,0.437109,
2011-01-03, 00:16:04,VALID,1002.48,VALID,0,INVALID,163.678,VALID,0,VALID,24.3459,VALID,2,VALID,0.494531,
2011-01-03, 00:17:04,VALID,1002.45,VALID,0,INVALID,163.685,VALID,0,VALID,24.3459,VALID,354,VALID,0.407422,
2011-01-03, 00:18:04,VALID,1002.41,VALID,0,INVALID,163.67,VALID,0,VALID,24.3459,VALID,353,VALID,0.291016,
2011-01-03, 00:19:04,VALID,1002.36,VALID,0,INVALID,163.701,VALID,0,VALID,24.3654,VALID,353,VALID,0.330469,
2011-01-03, 00:20:04,VALID,1002.34,VALID,0,INVALID,163.685,VALID,0,VALID,24.3654,VALID,353,VALID,0.226953,
2011-01-03, 00:21:04,VALID,1002.33,VALID,0,INVALID,163.685,VALID,0,VALID,24.3441,VALID,353,VALID,0.272656,
2011-01-03, 00:22:04,VALID,1002.33,VALID,0,INVALID,163.701,VALID,0,VALID,24.3849,VALID,353,VALID,0.480469,
2011-01-03, 00:23:04,VALID,1002.35,VALID,0,INVALID,163.701,VALID,0,VALID,24.4257,VALID,360,VALID,0.557813,
2011-01-03, 00:24:04,VALID,1002.36,VALID,0,INVALID,163.678,VALID,0,VALID,24.4238,VALID,1,VALID,0.601172,
2011-01-03, 00:25:04,VALID,1002.32,VALID,0,INVALID,163.67,VALID,0,VALID,24.4238,VALID,1,VALID,0.537891,
2011-01-03, 00:26:04,VALID,1002.35,VALID,0,INVALID,163.67,VALID,0,VALID,24.422,VALID,1,VALID,0.460547,
2011-01-03, 00:27:04,VALID,1002.32,VALID,0,INVALID,163.685,VALID,0,VALID,24.4433,VALID,1,VALID,0.292188,
2011-01-03, 00:28:04,VALID,1002.33,VALID,0,INVALID,163.701,VALID,0,VALID,24.4025,VALID,1,VALID,0.325,
2011-01-03, 00:29:04,VALID,1002.3,VALID,0,INVALID,163.67,VALID,0,VALID,24.4433,VALID,1,VALID,0.446094,
2011-01-03, 00:30:04,VALID,1002.29,VALID,0,INVALID,163.678,VALID,0,VALID,24.4433,VALID,1,VALID,0.273828,
2011-01-03, 00:31:04,VALID,1002.26,VALID,0,INVALID,163.693,VALID,0,VALID,24.422,VALID,1,VALID,0.176563,
2011-01-03, 00:32:04,VALID,1002.28,VALID,0,INVALID,163.67,VALID,0,VALID,24.4628,VALID,1,VALID,0.303906,
2011-01-03, 00:33:04,VALID,1002.24,VALID,0,INVALID,163.701,VALID,0,VALID,24.4628,VALID,1,VALID,0.273828,
2011-01-03, 00:34:04,VALID,1002.23,VALID,0,INVALID,163.662,VALID,0,VALID,24.4433,VALID,1,VALID,0.251953,
2011-01-03, 00:35:04,VALID,1002.21,VALID,0,INVALID,163.662,VALID,0,VALID,24.4628,VALID,1,VALID,0.257031,
2011-01-03, 00:36:04,VALID,1002.2,VALID,0,INVALID,163.67,VALID,0,VALID,24.4628,VALID,1,VALID,0.263672,
2011-01-03, 00:37:04,VALID,1002.16,VALID,0,INVALID,163.678,VALID,0,VALID,24.4646,VALID,1,VALID,0.233203,
2011-01-03, 00:38:04,VALID,1002.2,VALID,0,INVALID,163.662,VALID,0,VALID,24.4433,VALID,1,VALID,0.328516,
2011-01-03, 00:39:04,VALID,1002.22,VALID,0,INVALID,163.655,VALID,0,VALID,24.4238,VALID,1,VALID,0.487891,
2011-01-03, 00:40:04,VALID,1002.24,VALID,0,INVALID,163.678,VALID,0,VALID,24.4433,VALID,1,VALID,0.596484,
2011-01-03, 00:41:04,VALID,1002.25,VALID,0,INVALID,163.685,VALID,0,VALID,24.4238,VALID,1,VALID,0.558203,
2011-01-03, 00:42:04,VALID,1002.24,VALID,0,INVALID,163.639,VALID,0,VALID,24.4238,VALID,1,VALID,0.48125,
2011-01-03, 00:43:04,VALID,1002.27,VALID,0,INVALID,163.655,VALID,0,VALID,24.4433,VALID,1,VALID,0.370703,
2011-01-03, 00:44:04,VALID,1002.29,VALID,0,INVALID,163.685,VALID,0,VALID,24.4025,VALID,1,VALID,0.395312,
2011-01-03, 00:45:04,VALID,1002.25,VALID,0,INVALID,163.678,VALID,0,VALID,24.4238,VALID,1,VALID,0.489844,
2011-01-03, 00:46:04,VALID,1002.28,VALID,0,INVALID,163.655,VALID,0,VALID,24.4238,VALID,1,VALID,0.328125,
2011-01-03, 00:47:04,VALID,1002.26,VALID,0,INVALID,163.693,VALID,0,VALID,24.4451,VALID,1,VALID,0.376563,
2011-01-03, 00:48:04,VALID,1002.3,VALID,0,INVALID,163.678,VALID,0,VALID,24.4025,VALID,1,VALID,0.371484,
2011-01-03, 00:49:04,VALID,1002.31,VALID,0,INVALID,163.67,VALID,0,VALID,24.4238,VALID,1,VALID,0.359766,
2011-01-03, 00:50:04,VALID,1002.34,VALID,0,INVALID,163.67,VALID,0,VALID,24.4238,VALID,1,VALID,0.472266,
2011-01-03, 00:51:04,VALID,1002.35,VALID,0,INVALID,163.685,VALID,0,VALID,24.4433,VALID,1,VALID,0.484766,
2011-01-03, 00:52:04,VALID,1002.33,VALID,0,INVALID,163.67,VALID,0,VALID,24.4433,VALID,1,VALID,0.408594,
2011-01-03, 00:53:04,VALID,1002.36,VALID,0,INVALID,163.662,VALID,0,VALID,24.4628,VALID,1,VALID,0.269531,
2011-01-03, 00:54:04,VALID,1002.35,VALID,0,INVALID,163.67,VALID,0,VALID,24.4609,VALID,1,VALID,0.169922,
2011-01-03, 00:55:04,VALID,1002.38,VALID,0,INVALID,163.678,VALID,0,VALID,24.4822,VALID,1,VALID,0.156641,
2011-01-03, 00:56:04,VALID,1002.37,VALID,0,INVALID,163.701,VALID,0,VALID,24.4609,VALID,1,VALID,0.0742188,
2011-01-03, 00:57:04,VALID,1002.4,VALID,0,INVALID,163.701,VALID,0,VALID,24.4628,VALID,1,VALID,0,
2011-01-03, 00:58:04,VALID,1002.42,VALID,0,INVALID,163.655,VALID,0,VALID,24.4822,VALID,1,VALID,0,
2011-01-03, 00:59:04,VALID,1002.42,VALID,0,INVALID,163.67,VALID,0,VALID,24.5017,VALID,1,VALID,0.423438,
2011-01-03, 01:00:04,VALID,1002.45,VALID,0,INVALID,163.662,VALID,0,VALID,24.4609,VALID,1,VALID,0.533984,
2011-01-03, 01:01:04,VALID,1002.47,VALID,0,INVALID,163.685,VALID,0,VALID,24.4822,VALID,1,VALID,0.579297,
2011-01-03, 01:02:04,VALID,1002.46,VALID,0,INVALID,163.67,VALID,0,VALID,24.5017,VALID,1,VALID,0.438672,
2011-01-03, 01:03:04,VALID,1002.49,VALID,0,INVALID,163.67,VALID,0,VALID,24.523,VALID,1,VALID,0.422656,
2011-01-03, 01:04:04,VALID,1002.48,VALID,0,INVALID,163.685,VALID,0,VALID,24.5017,VALID,1,VALID,0.487109,
2011-01-03, 01:05:04,VALID,1002.47,VALID,0,INVALID,163.685,VALID,0,VALID,24.5017,VALID,1,VALID,0.423828,
2011-01-03, 01:06:04,VALID,1002.46,VALID,0,INVALID,163.693,VALID,0,VALID,24.4804,VALID,1,VALID,0.532422,
2011-01-03, 01:07:04,VALID,1002.45,VALID,0,INVALID,163.678,VALID,0,VALID,24.4822,VALID,1,VALID,0.525781,
2011-01-03, 01:08:04,VALID,1002.44,VALID,0,INVALID,163.685,VALID,0,VALID,24.4822,VALID,1,VALID,0.680859,
2011-01-03, 01:09:04,VALID,1002.45,VALID,0,INVALID,163.693,VALID,0,VALID,24.4628,VALID,359,VALID,0.750781,
2011-01-03, 01:10:04,VALID,1002.45,VALID,0,INVALID,163.701,VALID,0.100563,VALID,24.4609,VALID,358,VALID,0.516016,
2011-01-03, 01:11:04,VALID,1002.44,VALID,0,INVALID,163.67,VALID,0,VALID,24.4609,VALID,358,VALID,0.648047,
2011-01-03, 01:12:04,VALID,1002.43,VALID,0,INVALID,163.701,VALID,0,VALID,24.4609,VALID,358,VALID,0.535547,
2011-01-03, 01:13:04,VALID,1002.41,VALID,0,INVALID,163.678,VALID,0,VALID,24.4396,VALID,358,VALID,0.585547,
2011-01-03, 01:14:04,VALID,1002.39,VALID,0,INVALID,163.662,VALID,0.100563,VALID,24.4396,VALID,358,VALID,0.48125,
2011-01-03, 01:15:04,VALID,1002.42,VALID,0,INVALID,163.678,VALID,0,VALID,24.4609,VALID,358,VALID,0.507031,
2011-01-03, 01:16:04,VALID,1002.41,VALID,0,INVALID,163.701,VALID,0,VALID,24.4414,VALID,358,VALID,0.5375,
2011-01-03, 01:17:04,VALID,1002.37,VALID,0,INVALID,163.693,VALID,0.100563,VALID,24.4609,VALID,358,VALID,0.594531,
2011-01-03, 01:18:04,VALID,1002.34,VALID,0,INVALID,163.662,VALID,0.100563,VALID,24.4609,VALID,358,VALID,0.578125,
2011-01-03, 01:19:04,VALID,1002.35,VALID,0,INVALID,163.693,VALID,0.100563,VALID,24.4609,VALID,358,VALID,0.633203,
2011-01-03, 01:20:04,VALID,1002.29,VALID,0,INVALID,163.662,VALID,0,VALID,24.4804,VALID,348,VALID,0.751953,
2011-01-03, 01:21:04,VALID,1002.25,VALID,0,INVALID,163.685,VALID,0,VALID,24.4804,VALID,346,VALID,0.826953,
2011-01-03, 01:22:04,VALID,1002.23,VALID,0,INVALID,163.67,VALID,0,VALID,24.5796,VALID,355,VALID,0.638281,
2011-01-03, 01:23:04,VALID,1002.23,VALID,0,INVALID,163.662,VALID,0.100563,VALID,24.6361,VALID,341,VALID,0.653906,
2011-01-03, 01:24:04,VALID,1002.23,VALID,0,INVALID,163.655,VALID,0.100563,VALID,24.6926,VALID,342,VALID,0.857813,
2011-01-03, 01:25:04,VALID,1002.24,VALID,0,INVALID,163.67,VALID,0,VALID,24.7919,VALID,353,VALID,0.835938,
2011-01-03, 01:26:04,VALID,1002.23,VALID,0,INVALID,163.647,VALID,0,VALID,24.9087,VALID,346,VALID,0.826172,
2011-01-03, 01:27:04,VALID,1002.24,VALID,0,INVALID,163.624,VALID,0,VALID,25.0663,VALID,4,VALID,0.680859,
2011-01-03, 01:28:04,VALID,1002.22,VALID,0,INVALID,163.639,VALID,0,VALID,25.2221,VALID,8,VALID,0.998438,
2011-01-03, 01:29:04,VALID,1002.21,VALID,0,INVALID,163.624,VALID,0,VALID,25.3195,VALID,345,VALID,0.669141,
2011-01-03, 01:30:04,VALID,1002.19,VALID,0,INVALID,163.601,VALID,0,VALID,25.3974,VALID,5,VALID,1.20781,
2011-01-03, 01:31:04,VALID,1002.22,VALID,0,INVALID,163.594,VALID,0,VALID,25.4734,VALID,12,VALID,0.717969,
2011-01-03, 01:32:04,VALID,1002.22,VALID,0,INVALID,163.609,VALID,0,VALID,25.5532,VALID,12,VALID,0.632813,
2011-01-03, 01:33:04,VALID,1002.17,VALID,0,INVALID,163.586,VALID,0,VALID,25.5921,VALID,32,VALID,1.14805,
2011-01-03, 01:34:04,VALID,1002.17,VALID,0,INVALID,163.578,VALID,0,VALID,25.6097,VALID,22,VALID,0.552734,
2011-01-03, 01:35:04,VALID,1002.17,VALID,0,INVALID,163.578,VALID,0,VALID,25.6292,VALID,44,VALID,0.419922,
2011-01-03, 01:36:04,VALID,1002.16,VALID,0,INVALID,163.617,VALID,0,VALID,25.6506,VALID,24,VALID,0.855078,
2011-01-03, 01:37:04,VALID,1002.14,VALID,0,INVALID,162.976,VALID,0,VALID,25.6681,VALID,37,VALID,1.33984,
2011-01-03, 01:38:04,VALID,1002.13,VALID,0,INVALID,155.705,VALID,0,VALID,25.7285,VALID,10,VALID,0.835547,
2011-01-03, 01:39:04,VALID,1002.15,VALID,0,INVALID,134.329,VALID,0,VALID,25.748,VALID,15,VALID,1.24961,
2011-01-03, 01:40:04,VALID,1002.13,VALID,0,INVALID,130.79,VALID,0,VALID,25.7674,VALID,2,VALID,0.663281,
2011-01-03, 01:41:04,VALID,1002.16,VALID,0,INVALID,125.434,VALID,0,VALID,25.7674,VALID,349,VALID,0.989062,
2011-01-03, 01:42:04,VALID,1002.16,VALID,0,INVALID,125.968,VALID,0,VALID,25.7869,VALID,359,VALID,0.625781,
2011-01-03, 01:43:04,VALID,1002.15,VALID,0,INVALID,130.622,VALID,0,VALID,25.7869,VALID,12,VALID,0.399609,
2011-01-03, 01:44:04,VALID,1002.18,VALID,0,INVALID,126.327,VALID,0,VALID,25.7655,VALID,28,VALID,0.351563,
2011-01-03, 01:45:04,VALID,1002.17,VALID,0,INVALID,121.833,VALID,0,VALID,25.7869,VALID,330,VALID,0.757813,
2011-01-03, 01:46:04,VALID,1002.16,VALID,0,INVALID,122.192,VALID,0,VALID,25.7869,VALID,10,VALID,0.6875,
2011-01-03, 01:47:04,VALID,1002.17,VALID,0,INVALID,115.227,VALID,0,VALID,25.7869,VALID,11,VALID,0.908594,
2011-01-03, 01:48:04,VALID,1002.17,VALID,0,INVALID,110.069,VALID,0,VALID,25.8044,VALID,19,VALID,1.56133,
2011-01-03, 01:49:04,VALID,1002.19,VALID,0,INVALID,109.078,VALID,0,VALID,25.8629,VALID,18,VALID,0.978906,
2011-01-03, 01:50:04,VALID,1002.21,VALID,0,INVALID,109.124,VALID,0,VALID,25.8629,VALID,350,VALID,0.941406,
2011-01-03, 01:51:04,VALID,1002.3,VALID,0,VALID,104,VALID,0,VALID,25.8648,VALID,26,VALID,2.06719,
2011-01-03, 01:52:04,VALID,1002.31,VALID,0,VALID,104,VALID,0,VALID,25.8823,VALID,26,VALID,1.88359,
2011-01-03, 01:53:04,VALID,1002.35,VALID,0,VALID,104,VALID,0,VALID,25.9232,VALID,30,VALID,1.46289,
2011-01-03, 01:54:04,VALID,1002.41,VALID,0,VALID,104,VALID,0,VALID,25.8629,VALID,25,VALID,1.90078,
2011-01-03, 01:55:04,VALID,1002.37,VALID,0,INVALID,109.543,VALID,0,VALID,25.8064,VALID,24,VALID,2.02266,
2011-01-03, 01:56:04,VALID,1002.34,VALID,0,INVALID,116.592,VALID,0,VALID,25.7674,VALID,37,VALID,1.70547,
2011-01-03, 01:57:04,VALID,1002.34,VALID,0,INVALID,118.85,VALID,0,VALID,25.7304,VALID,5,VALID,2.64453,
2011-01-03, 01:58:04,VALID,1002.3,VALID,0,INVALID,124.885,VALID,0,VALID,25.7109,VALID,16,VALID,1.92578,
2011-01-03, 01:59:04,VALID,1002.29,VALID,0,INVALID,141.935,VALID,0,VALID,25.6097,VALID,25,VALID,1.47344,
2011-01-03, 02:00:04,VALID,1002.26,VALID,0,INVALID,160.321,VALID,0,VALID,25.5337,VALID,29,VALID,2.20859,
2011-01-03, 02:01:04,VALID,1002.27,VALID,0,INVALID,163.556,VALID,0,VALID,25.4363,VALID,33,VALID,2.49531,
2011-01-03, 02:02:04,VALID,1002.27,VALID,0,INVALID,163.594,VALID,0,VALID,25.339,VALID,25,VALID,3.53789,
2011-01-03, 02:03:04,VALID,1002.28,VALID,0,INVALID,163.586,VALID,0,VALID,25.2397,VALID,27,VALID,3.32695,
2011-01-03, 02:04:04,VALID,1002.29,VALID,0,INVALID,163.617,VALID,0,VALID,25.2027,VALID,20,VALID,3.19453,
2011-01-03, 02:05:04,VALID,1002.31,VALID,0,INVALID,163.632,VALID,0,VALID,25.1229,VALID,17,VALID,3.42617,
2011-01-03, 02:06:04,VALID,1002.38,VALID,0,INVALID,163.624,VALID,0,VALID,25.0644,VALID,12,VALID,2.12891,
2011-01-03, 02:07:04,VALID,1002.36,VALID,0,INVALID,163.617,VALID,0,VALID,25.0079,VALID,14,VALID,3.86914,
2011-01-03, 02:08:04,VALID,1002.42,VALID,0,INVALID,163.662,VALID,0,VALID,24.9476,VALID,6,VALID,1.78867,
2011-01-03, 02:09:04,VALID,1002.38,VALID,0,INVALID,163.655,VALID,0,VALID,24.93,VALID,20,VALID,4.09805,
2011-01-03, 02:10:04,VALID,1002.4,VALID,0,INVALID,163.67,VALID,0.100563,VALID,24.8697,VALID,12,VALID,2.45977,
2011-01-03, 02:11:04,VALID,1002.39,VALID,0,INVALID,163.639,VALID,0.100563,VALID,24.8911,VALID,13,VALID,1.44727,
2011-01-03, 02:12:04,VALID,1002.37,VALID,0,INVALID,163.632,VALID,0.100563,VALID,24.8113,VALID,19,VALID,2.79688,
2011-01-03, 02:13:04,VALID,1002.36,VALID,0,INVALID,163.639,VALID,0.100563,VALID,24.7919,VALID,4,VALID,3.2457,
2011-01-03, 02:14:04,VALID,1002.35,VALID,0,INVALID,163.693,VALID,0,VALID,24.7724,VALID,15,VALID,1.22109,
2011-01-03, 02:15:04,VALID,1002.32,VALID,0,INVALID,163.655,VALID,0,VALID,24.7529,VALID,21,VALID,1.65313,
2011-01-03, 02:16:04,VALID,1002.29,VALID,0,INVALID,163.639,VALID,0.100563,VALID,24.6926,VALID,360,VALID,2.61992,
2011-01-03, 02:17:04,VALID,1002.29,VALID,0,INVALID,163.678,VALID,0.100563,VALID,24.714,VALID,360,VALID,3.70977,
2011-01-03, 02:18:04,VALID,1002.25,VALID,0,INVALID,163.678,VALID,0,VALID,24.714,VALID,18,VALID,1.6375,
2011-01-03, 02:19:04,VALID,1002.22,VALID,0,INVALID,163.67,VALID,0,VALID,24.714,VALID,4,VALID,2.01367,
2011-01-03, 02:20:04,VALID,1002.17,VALID,0,INVALID,163.662,VALID,0,VALID,24.675,VALID,360,VALID,3.04531,
2011-01-03, 02:21:04,VALID,1002.16,VALID,0,INVALID,163.662,VALID,0,VALID,24.6556,VALID,32,VALID,1.8543,
2011-01-03, 02:22:04,VALID,1002.14,VALID,0,INVALID,163.655,VALID,0.100563,VALID,24.6342,VALID,7,VALID,1.37812,
2011-01-03, 02:23:04,VALID,1002.13,VALID,0,INVALID,163.67,VALID,0.100563,VALID,24.6166,VALID,21,VALID,1.63516,
2011-01-03, 02:24:04,VALID,1002.13,VALID,0,INVALID,163.655,VALID,0.100563,VALID,24.6185,VALID,23,VALID,2.72734,
2011-01-03, 02:25:04,VALID,1002.13,VALID,0,INVALID,163.662,VALID,0,VALID,24.5953,VALID,35,VALID,2.29023,
2011-01-03, 02:26:04,VALID,1002.1,VALID,0,INVALID,163.655,VALID,0,VALID,24.5777,VALID,24,VALID,2.66992,
2011-01-03, 02:27:04,VALID,1002.07,VALID,0,INVALID,163.685,VALID,0,VALID,24.5777,VALID,22,VALID,1.62734,
2011-01-03, 02:28:04,VALID,1002.06,VALID,0,INVALID,163.678,VALID,0,VALID,24.5582,VALID,14,VALID,1.09297,
2011-01-03, 02:29:04,VALID,1002.03,VALID,0,INVALID,163.662,VALID,0.100563,VALID,24.5388,VALID,22,VALID,0.833594,
2011-01-03, 02:30:04,VALID,1002,VALID,0,INVALID,163.662,VALID,0.100563,VALID,24.5388,VALID,3,VALID,0.996875,
2011-01-03, 02:31:04,VALID,1001.99,VALID,0,INVALID,163.655,VALID,0,VALID,24.4998,VALID,18,VALID,2.94805,
2011-01-03, 02:32:04,VALID,1001.97,VALID,0,INVALID,163.662,VALID,0,VALID,24.4998,VALID,10,VALID,2.64687,
2011-01-03, 02:33:04,VALID,1001.95,VALID,0,INVALID,163.678,VALID,0,VALID,24.4998,VALID,8,VALID,2.47969,
2011-01-03, 02:34:04,VALID,1001.92,VALID,0,INVALID,163.662,VALID,0,VALID,24.4998,VALID,11,VALID,1.76055,
2011-01-03, 02:35:04,VALID,1001.88,VALID,0,INVALID,163.678,VALID,0,VALID,24.4998,VALID,357,VALID,2.27852,
2011-01-03, 02:36:04,VALID,1001.84,VALID,0,INVALID,163.67,VALID,0,VALID,24.4804,VALID,4,VALID,1.6168,
2011-01-03, 02:37:04,VALID,1001.8,VALID,0,INVALID,163.685,VALID,0.100563,VALID,24.4396,VALID,37,VALID,0.570703,
2011-01-03, 02:38:04,VALID,1001.78,VALID,0,INVALID,163.662,VALID,0.100563,VALID,24.4609,VALID,30,VALID,2.90508,
2011-01-03, 02:39:04,VALID,1001.76,VALID,0,INVALID,163.662,VALID,0,VALID,24.4414,VALID,1,VALID,1.86172,
2011-01-03, 02:40:04,VALID,1001.73,VALID,0,INVALID,163.693,VALID,0,VALID,24.4433,VALID,40,VALID,1.79258,
2011-01-03, 02:41:04,VALID,1001.7,VALID,0,INVALID,163.701,VALID,0,VALID,24.422,VALID,14,VALID,3.00039,
2011-01-03, 02:42:04,VALID,1001.7,VALID,0,INVALID,163.701,VALID,0,VALID,24.4238,VALID,18,VALID,1.68867,
2011-01-03, 02:43:04,VALID,1001.73,VALID,0,INVALID,163.685,VALID,0,VALID,24.4238,VALID,18,VALID,2.05234,
2011-01-03, 02:44:04,VALID,1001.73,VALID,0,INVALID,163.701,VALID,0,VALID,24.4238,VALID,24,VALID,1.2918,
2011-01-03, 02:45:04,VALID,1001.74,VALID,0,INVALID,163.685,VALID,0,VALID,24.383,VALID,24,VALID,1.9418,
2011-01-03, 02:46:04,VALID,1001.76,VALID,0,INVALID,163.67,VALID,0,VALID,24.4257,VALID,13,VALID,1.80625,
2011-01-03, 02:47:04,VALID,1001.74,VALID,0,INVALID,163.678,VALID,0,VALID,24.4238,VALID,11,VALID,2.10547,
2011-01-03, 02:48:04,VALID,1001.76,VALID,0,INVALID,163.67,VALID,0,VALID,24.4238,VALID,24,VALID,1.19062,
2011-01-03, 02:49:04,VALID,1001.76,VALID,0,INVALID,163.678,VALID,0,VALID,24.383,VALID,34,VALID,1.63711,
2011-01-03, 02:50:04,VALID,1001.73,VALID,0,INVALID,163.693,VALID,0,VALID,24.383,VALID,5,VALID,1.11953,
2011-01-03, 02:51:04,VALID,1001.74,VALID,0,INVALID,163.693,VALID,0,VALID,24.4043,VALID,27,VALID,1.38984,
2011-01-03, 02:52:04,VALID,1001.72,VALID,0,INVALID,163.685,VALID,0,VALID,24.4043,VALID,31,VALID,0.948438,
2011-01-03, 02:53:04,VALID,1001.71,VALID,0,INVALID,163.655,VALID,0,VALID,24.383,VALID,7,VALID,1.3543,
2011-01-03, 02:54:04,VALID,1001.7,VALID,0,INVALID,163.678,VALID,0,VALID,24.4043,VALID,20,VALID,0.681641,
2011-01-03, 02:55:04,VALID,1001.72,VALID,0,INVALID,163.693,VALID,0,VALID,24.383,VALID,21,VALID,1.08398,
2011-01-03, 02:56:04,VALID,1001.67,VALID,0,INVALID,163.678,VALID,0,VALID,24.4043,VALID,17,VALID,1.60078,
2011-01-03, 02:57:04,VALID,1001.71,VALID,0,INVALID,163.678,VALID,0,VALID,24.4043,VALID,355,VALID,1.36992,
2011-01-03, 02:58:04,VALID,1001.71,VALID,0,INVALID,163.678,VALID,0,VALID,24.4025,VALID,16,VALID,1.76875,
2011-01-03, 02:59:04,VALID,1001.72,VALID,0,INVALID,163.67,VALID,0,VALID,24.4238,VALID,2,VALID,0.926562,
2011-01-03, 03:00:04,VALID,1001.75,VALID,0,INVALID,163.67,VALID,0,VALID,24.4025,VALID,6,VALID,1.0082,
2011-01-03, 03:01:04,VALID,1001.77,VALID,0,INVALID,163.647,VALID,0,VALID,24.4043,VALID,30,VALID,1.12617,
2011-01-03, 03:02:04,VALID,1001.76,VALID,0,INVALID,163.723,VALID,0,VALID,24.383,VALID,355,VALID,0.948828,
2011-01-03, 03:03:04,VALID,1001.81,VALID,0,INVALID,163.693,VALID,0,VALID,24.3849,VALID,16,VALID,1.00898,
2011-01-03, 03:04:04,VALID,1001.82,VALID,0,INVALID,163.685,VALID,0,VALID,24.3636,VALID,17,VALID,1.60977,
2011-01-03, 03:05:04,VALID,1001.85,VALID,0,INVALID,163.678,VALID,0,VALID,24.3849,VALID,4,VALID,2.43633,
2011-01-03, 03:06:04,VALID,1001.82,VALID,0,INVALID,163.693,VALID,0,VALID,24.4043,VALID,8,VALID,1.67656,
2011-01-03, 03:07:04,VALID,1001.87,VALID,0,INVALID,163.678,VALID,0,VALID,24.422,VALID,16,VALID,0.944141,
2011-01-03, 03:08:04,VALID,1001.86,VALID,0,INVALID,163.662,VALID,0,VALID,24.4433,VALID,14,VALID,1.03008,
2011-01-03, 03:09:04,VALID,1001.89,VALID,0,INVALID,163.67,VALID,0,VALID,24.4433,VALID,13,VALID,1.87305,
2011-01-03, 03:10:04,VALID,1001.88,VALID,0,INVALID,163.67,VALID,0,VALID,24.4414,VALID,1,VALID,1.35352,
2011-01-03, 03:11:04,VALID,1001.88,VALID,0,INVALID,163.693,VALID,0,VALID,24.4414,VALID,14,VALID,1.15547,
2011-01-03, 03:12:04,VALID,1001.95,VALID,0,INVALID,163.708,VALID,0,VALID,24.4609,VALID,44,VALID,0.810156,
2011-01-03, 03:13:04,VALID,1001.94,VALID,0,INVALID,163.685,VALID,0,VALID,24.4609,VALID,356,VALID,1.40742,
2011-01-03, 03:14:04,VALID,1001.98,VALID,0,INVALID,163.693,VALID,0,VALID,24.4822,VALID,1,VALID,0.964063,
2011-01-03, 03:15:04,VALID,1001.99,VALID,0,INVALID,163.67,VALID,0,VALID,24.5017,VALID,353,VALID,1.40508,
2011-01-03, 03:16:04,VALID,1002.03,VALID,0,INVALID,163.67,VALID,0,VALID,24.5017,VALID,327,VALID,0.871094,
2011-01-03, 03:17:04,VALID,1002.01,VALID,0,INVALID,163.701,VALID,0,VALID,24.4998,VALID,8,VALID,1.51094,
2011-01-03, 03:18:04,VALID,1002.01,VALID,0,INVALID,163.693,VALID,0,VALID,24.4998,VALID,354,VALID,0.641406,
2011-01-03, 03:19:04,VALID,1002.02,VALID,0,INVALID,163.685,VALID,0,VALID,24.4998,VALID,2,VALID,1.08008,
2011-01-03, 03:20:04,VALID,1002.03,VALID,0,INVALID,163.693,VALID,0,VALID,24.4998,VALID,300,VALID,0.879687,
2011-01-03, 03:21:04,VALID,1002.05,VALID,0,INVALID,163.678,VALID,0,VALID,24.4998,VALID,17,VALID,0.371875,
2011-01-03, 03:22:04,VALID,1002.06,VALID,0,INVALID,163.67,VALID,0,VALID,24.5212,VALID,283,VALID,1.02422,
2011-01-03, 03:23:04,VALID,1002.08,VALID,0,INVALID,163.655,VALID,0,VALID,24.5601,VALID,246,VALID,0.798437,
2011-01-03, 03:24:04,VALID,1002.14,VALID,0,INVALID,163.662,VALID,0,VALID,24.5388,VALID,229,VALID,1.10859,
2011-01-03, 03:25:04,VALID,1002.19,VALID,0,INVALID,163.67,VALID,0,VALID,24.5601,VALID,214,VALID,1.03711,
2011-01-03, 03:26:04,VALID,1002.24,VALID,0,INVALID,163.662,VALID,0,VALID,24.5582,VALID,180,VALID,1.84922,
2011-01-03, 03:27:04,VALID,1002.3,VALID,0,INVALID,163.693,VALID,0,VALID,24.5601,VALID,185,VALID,2.44688,
2011-01-03, 03:28:04,VALID,1002.25,VALID,0,INVALID,163.693,VALID,0,VALID,24.5601,VALID,187,VALID,1.2,
2011-01-03, 03:29:04,VALID,1002.25,VALID,0,INVALID,163.685,VALID,0,VALID,24.5388,VALID,172,VALID,1.1707,
2011-01-03, 03:30:04,VALID,1002.25,VALID,0,INVALID,163.678,VALID,0,VALID,24.5601,VALID,160,VALID,1.6918,
2011-01-03, 03:31:04,VALID,1002.24,VALID,0,INVALID,163.67,VALID,0,VALID,24.5017,VALID,297,VALID,0.858984,
2011-01-03, 03:32:04,VALID,1002.25,VALID,0,INVALID,163.701,VALID,0,VALID,24.422,VALID,216,VALID,2.03984,
2011-01-03, 03:33:04,VALID,1002.22,VALID,0,INVALID,163.678,VALID,0,VALID,24.3265,VALID,192,VALID,2.82188,
2011-01-03, 03:34:04,VALID,1002.25,VALID,0,INVALID,163.693,VALID,0,VALID,24.2486,VALID,148,VALID,1.30078,
2011-01-03, 03:35:04,VALID,1002.29,VALID,0,INVALID,163.716,VALID,0,VALID,24.1689,VALID,229,VALID,0.903516,
2011-01-03, 03:36:04,VALID,1002.33,VALID,0,INVALID,163.708,VALID,0,VALID,24.0521,VALID,186,VALID,1.72617,
2011-01-03, 03:37:04,VALID,1002.33,VALID,0,INVALID,163.716,VALID,0,VALID,23.9761,VALID,182,VALID,2.54766,
2011-01-03, 03:38:04,VALID,1002.44,VALID,0,INVALID,163.723,VALID,0,VALID,23.838,VALID,217,VALID,2.37227,
2011-01-03, 03:39:04,VALID,1002.52,VALID,0,INVALID,163.708,VALID,0,VALID,23.7601,VALID,212,VALID,2.18281,
2011-01-03, 03:40:04,VALID,1002.65,VALID,0,INVALID,163.723,VALID,0,VALID,23.723,VALID,226,VALID,2.21328,
2011-01-03, 03:41:04,VALID,1002.7,VALID,0,INVALID,163.754,VALID,0,VALID,23.7035,VALID,216,VALID,1.1707,
2011-01-03, 03:42:04,VALID,1002.73,VALID,0,INVALID,163.762,VALID,0,VALID,23.6434,VALID,180,VALID,1.72031,